Temp
-32 -31 -31 -29 -28 -27 -26 -25 -24 -24 -24 -23 -22 -23 -22 -21 -21 -21 -21 -21 -20 -19 -19 -19 -18 -18 -17 -17 -16 -16 -16 -16 -15 -15 -15 -15 -14 -14 -14 -14 -14 -14 -14 -13
-33 -32 -31 -30 -30 -28 -28 -26 -25 -24 -24 -24 -23 -22 -22 -22 -21 -21 -22 -22 -22 -21 -20 -20 -20 -19 -18 -18 -17 -17 -16 -16 -15 -15 -15 -15 -15 -15 -14 -14 -14 -14 -14 -13
-34 -33 -32 -31 -30 -29 -29 -28 -27 -26 -25 -24 -24 -23 -23 -23 -22 -22 -22 -22 -22 -22 -22 -21 -20 -20 -19 -18 -18 -17 -17 -16 -16 -16 -15 -15 -15 -15 -14 -14 -14 -14 -14 -13
-34 -33 -33 -32 -32 -31 -30 -29 -28 -27 -26 -25 -25 -25 -24 -24 -23 -23 -22 -22 -22 -22 -22 -22 -21 -21 -20 -19 -19 -18 -17 -17 -17 -16 -16 -15 -15 -15 -15 -15 -14 -14 -14 -14
-35 -34 -33 -33 -32 -31 -30 -29 -29 -28 -27 -26 -26 -25 -24 -24 -23 -23 -23 -22 -22 -22 -22 -22 -22 -22 -21 -20 -19 -19 -18 -18 -18 -17 -16 -16 -16 -15 -15 -15 -15 -15 -14 -14
-35 -35 -34 -33 -33 -32 -31 -30 -29 -29 -28 -27 -26 -26 -25 -24 -24 -24 -23 -24 -23 -23 -23 -23 -23 -22 -22 -21 -20 -19 -19 -19 -18 -18 -18 -17 -17 -16 -16 -16 -16 -15 -15 -15
-35 -35 -35 -34 -33 -33 -32 -31 -30 -29 -28 -28 -27 -26 -26 -25 -25 -24 -24 -24 -24 -23 -23 -23 -23 -23 -23 -23 -22 -21 -20 -19 -19 -19 -19 -18 -18 -17 -17 -17 -17 -16 -16 -16
-34 -35 -35 -35 -34 -34 -33 -32 -32 -31 -30 -29 -28 -28 -27 -26 -26 -25 -25 -24 -23 -23 -23 -24 -24 -24 -23 -23 -23 -23 -22 -22 -22 -21 -21 -20 -20 -20 -21 -19 -19 -19 -18 -17
-34 -35 -35 -35 -35 -34 -34 -33 -32 -32 -31 -30 -30 -29 -28 -28 -27 -26 -26 -26 -24 -24 -24 -24 -24 -24 -23 -23 -23 -23 -23 -23 -23 -23 -23 -23 -22 -22 -21 -21 -21 -21 -20 -20
-35 -34 -34 -34 -35 -35 -35 -34 -34 -33 -32 -31 -31 -30 -29 -29 -28 -28 -27 -26 -26 -26 -25 -25 -24 -24 -24 -23 -24 -24 -24 -24 -24 -24 -23 -23 -23 -23 -22 -22 -22 -21 -21 -20
-35 -35 -35 -35 -34 -34 -34 -34 -34 -34 -33 -33 -32 -31 -30 -29 -29 -29 -28 -28 -27 -27 -27 -26 -26 -25 -25 -25 -25 -24 -24 -25 -24 -24 -24 -23 -23 -23 -23 -23 -23 -22 -21 -21
-35 -35 -35 -34 -34 -34 -34 -34 -34 -34 -34 -33 -33 -32 -32 -31 -30 -29 -29 -29 -28 -28 -28 -27 -27 -27 -26 -26 -25 -25 -25 -24 -24 -24 -24 -24 -23 -23 -23 -23 -23 -23 -22 -22
-36 -35 -35 -34 -34 -34 -34 -34 -34 -34 -33 -34 -33 -33 -32 -32 -32 -31 -30 -29 -28 -28 -28 -28 -28 -28 -27 -27 -26 -26 -25 -25 -24 -24 -24 -24 -24 -24 -23 -23 -23 -23 -23 -22
-36 -35 -35 -35 -34 -34 -34 -33 -33 -33 -33 -33 -33 -33 -33 -33 -32 -32 -31 -31 -30 -30 -29 -28 -28 -28 -27 -27 -27 -27 -26 -25 -25 -25 -25 -24 -25 -24 -24 -24 -23 -23 -23 -23
-36 -36 -36 -35 -35 -34 -34 -34 -34 -34 -33 -33 -33 -33 -33 -33 -32 -32 -32 -32 -31 -31 -30 -30 -29 -29 -28 -28 -28 -27 -26 -26 -26 -26 -26 -25 -25 -25 -25 -24 -24 -24 -24 -23
-37 -36 -36 -36 -35 -35 -35 -34 -34 -33 -33 -33 -33 -33 -33 -33 -32 -32 -32 -32 -32 -32 -31 -31 -31 -30 -30 -29 -29 -28 -28 -27 -27 -27 -26 -26 -26 -25 -25 -24 -24 -24 -24 -24
-36 -36 -36 -36 -36 -35 -35 -35 -34 -34 -34 -33 -33 -33 -33 -33 -33 -32 -32 -32 -32 -32 -32 -31 -31 -31 -30 -30 -30 -30 -29 -28 -28 -27 -27 -27 -26 -26 -26 -26 -25 -24 -24 -24
-36 -36 -36 -36 -36 -35 -35 -35 -35 -35 -34 -34 -34 -33 -33 -33 -33 -33 -33 -32 -32 -32 -32 -31 -31 -31 -31 -31 -31 -30 -30 -30 -29 -29 -28 -28 -27 -27 -26 -26 -26 -26 -25 -25
-36 -36 -36 -36 -36 -36 -36 -35 -35 -34 -34 -34 -34 -34 -34 -33 -33 -33 -33 -33 -33 -32 -32 -32 -31 -31 -31 -31 -31 -31 -31 -30 -30 -29 -29 -29 -29 -28 -27 -27 -26 -26 -26 -25
-36 -36 -36 -36 -36 -36 -36 -36 -36 -36 -35 -35 -35 -35 -34 -34 -34 -34 -33 -33 -33 -33 -32 -32 -32 -32 -31 -31 -31 -31 -31 -31 -30 -30 -30 -29 -29 -29 -29 -28 -27 -26 -26 -26
-36 -36 -36 -36 -36 -36 -36 -37 -37 -37 -37 -36 -36 -35 -35 -35 -34 -34 -34 -34 -33 -33 -33 -33 -32 -32 -32 -32 -31 -31 -31 -31 -30 -30 -30 -30 -30 -29 -30 -30 -30 -28 -27 -26
-35 -35 -35 -36 -36 -36 -36 -37 -37 -37 -37 -37 -37 -37 -37 -36 -36 -36 -35 -35 -34 -33 -33 -33 -33 -32 -32 -32 -32 -31 -31 -30 -30 -30 -30 -30 -30 -30 -30 -30 -30 -31 -28 -27
-35 -35 -35 -36 -36 -36 -36 -37 -37 -37 -37 -37 -37 -37 -37 -37 -37 -37 -37 -36 -36 -35 -34 -34 -33 -33 -32 -33 -32 -32 -32 -32 -31 -30 -30 -30 -31 -30 -31 -31 -31 -31 -31 -30
-34 -35 -35 -36 -36 -36 -36 -37 -37 -37 -37 -37 -37 -37 -37 -37 -37 -37 -37 -36 -36 -36 -36 -35 -35 -33 -33 -33 -32 -32 -32 -32 -32 -31 -31 -31 -31 -31 -31 -31 -31 -32 -32 -32
-35 -35 -36 -36 -37 -37 -37 -37 -37 -37 -38 -38 -38 -38 -38 -38 -38 -38 -37 -37 -37 -37 -36 -36 -36 -35 -35 -34 -33 -33 -32 -32 -32 -32 -32 -31 -31 -31 -31 -32 -31 -32 -33 -33
-35 -36 -36 -37 -37 -37 -37 -38 -38 -38 -38 -38 -38 -38 -39 -39 -38 -38 -38 -38 -38 -38 -37 -37 -37 -36 -36 -35 -35 -34 -33 -33 -32 -32 -32 -32 -32 -32 -31 -32 -32 -32 -33 -33
-36 -36 -36 -37 -37 -37 -38 -38 -38 -38 -39 -39 -39 -39 -39 -39 -39 -39 -39 -39 -38 -38 -38 -37 -37 -37 -37 -36 -35 -35 -35 -33 -33 -33 -32 -32 -32 -32 -32 -32 -32 -33 -33 -33
Height
5416 5419 5422 5428 5434 5440 5446 5453 5463 5470 5480 5490 5497 5508 5518 5526 5535 5543 5552 5560 5568 5576 5583 5591 5598 5605 5611 5619 5627 5634 5640 5646 5653 5658 5665 5670 5676 5681 5685 5690 5694 5698 5703 5707
5413 5417 5420 5424 5429 5433 5438 5446 5454 5461 5468 5479 5488 5496 5504 5513 5522 5530 5538 5547 5554 5562 5569 5576 5582 5588 5594 5602 5610 5617 5624 5630 5637 5643 5649 5655 5661 5667 5672 5677 5681 5685 5690 5695
5414 5415 5417 5423 5425 5428 5432 5438 5447 5454 5460 5470 5477 5484 5492 5499 5508 5516 5524 5532 5540 5548 5555 5561 5567 5573 5579 5587 5594 5601 5608 5615 5620 5627 5633 5640 5645 5651 5657 5662 5667 5672 5677 5681
5412 5414 5417 5418 5421 5425 5429 5432 5437 5443 5450 5457 5465 5471 5477 5485 5494 5503 5513 5520 5527 5534 5541 5548 5553 5559 5565 5572 5578 5584 5591 5599 5604 5610 5616 5623 5630 5636 5641 5647 5653 5658 5663 5667
5408 5410 5414 5416 5418 5421 5424 5428 5432 5436 5443 5448 5454 5462 5467 5474 5481 5490 5499 5506 5514 5521 5528 5534 5540 5545 5550 5556 5562 5568 5575 5582 5587 5593 5600 5606 5613 5620 5626 5632 5638 5643 5648 5653
5408 5407 5409 5412 5415 5417 5419 5424 5428 5432 5436 5440 5446 5452 5458 5464 5470 5478 5486 5494 5501 5507 5515 5521 5526 5531 5536 5541 5547 5553 5558 5565 5572 5577 5583 5590 5595 5602 5609 5615 5621 5627 5633 5637
5408 5406 5407 5407 5410 5413 5417 5423 5422 5426 5431 5435 5440 5445 5449 5454 5458 5465 5472 5479 5487 5495 5502 5508 5513 5517 5523 5528 5533 5537 5543 5548 5555 5561 5567 5573 5580 5586 5593 5599 5605 5610 5616 5623
5408 5406 5406 5405 5406 5410 5412 5414 5417 5420 5422 5427 5431 5435 5440 5444 5450 5454 5460 5466 5472 5480 5488 5494 5499 5504 5510 5515 5520 5525 5529 5534 5540 5546 5551 5558 5565 5573 5578 5584 5589 5595 5600 5606
5410 5407 5405 5404 5404 5404 5405 5407 5411 5415 5417 5420 5422 5426 5431 5435 5439 5445 5450 5455 5459 5467 5473 5480 5485 5491 5497 5503 5508 5514 5518 5523 5529 5534 5539 5545 5552 5560 5567 5570 5575 5581 5586 5594
5408 5407 5406 5405 5404 5403 5402 5402 5403 5405 5409 5412 5416 5419 5421 5425 5430 5434 5439 5444 5448 5454 5459 5465 5471 5478 5484 5490 5495 5501 5507 5511 5516 5523 5529 5533 5538 5545 5551 5557 5563 5568 5574 5579
5404 5403 5402 5402 5402 5401 5401 5400 5400 5400 5401 5403 5405 5409 5414 5418 5420 5424 5428 5432 5437 5443 5448 5454 5460 5466 5471 5476 5482 5489 5495 5500 5503 5509 5514 5520 5527 5532 5537 5542 5549 5554 5560 5564
5400 5399 5398 5398 5397 5398 5398 5397 5397 5397 5397 5398 5398 5400 5402 5405 5409 5413 5418 5422 5426 5431 5437 5443 5448 5453 5458 5462 5469 5476 5482 5487 5491 5497 5502 5507 5513 5518 5523 5529 5535 5540 5545 5552
5394 5393 5393 5393 5392 5392 5392 5392 5392 5393 5393 5393 5393 5394 5395 5396 5399 5402 5406 5410 5414 5419 5424 5428 5434 5439 5445 5449 5455 5461 5466 5471 5477 5482 5487 5493 5499 5504 5509 5515 5521 5526 5531 5538
5387 5386 5386 5385 5386 5386 5386 5385 5385 5386 5386 5386 5387 5388 5389 5391 5392 5394 5396 5398 5401 5404 5407 5412 5418 5423 5428 5432 5438 5446 5452 5455 5461 5466 5473 5479 5484 5490 5495 5500 5505 5511 5517 5523
5379 5378 5378 5378 5378 5378 5378 5379 5378 5378 5379 5379 5380 5380 5381 5382 5384 5386 5388 5390 5392 5393 5395 5397 5401 5404 5409 5414 5419 5425 5432 5439 5445 5450 5457 5462 5467 5474 5481 5486 5491 5497 5502 5509
5374 5372 5371 5370 5370 5370 5370 5370 5370 5371 5371 5372 5372 5373 5373 5374 5376 5377 5379 5380 5382 5384 5385 5387 5389 5391 5394 5397 5400 5406 5412 5419 5424 5430 5437 5444 5449 5455 5462 5470 5476 5481 5487 5494
5368 5366 5365 5363 5363 5362 5362 5362 5362 5362 5362 5362 5363 5364 5364 5365 5365 5367 5368 5370 5372 5373 5375 5376 5378 5380 5382 5384 5385 5388 5393 5397 5402 5409 5416 5424 5430 5436 5443 5449 5457 5465 5471 5477
5364 5361 5359 5357 5355 5353 5352 5352 5353 5353 5352 5353 5353 5353 5354 5354 5354 5354 5356 5358 5360 5361 5363 5365 5367 5369 5370 5372 5374 5377 5380 5383 5386 5390 5396 5401 5409 5415 5423 5430 5438 5445 5453 5461
5360 5356 5353 5350 5348 5346 5343 5341 5340 5340 5340 5341 5341 5341 5341 5343 5344 5344 5344 5345 5347 5348 5349 5351 5353 5355 5357 5359 5362 5364 5366 5369 5372 5376 5379 5384 5389 5394 5400 5408 5417 5426 5434 5442
5355 5351 5348 5344 5341 5339 5336 5333 5331 5329 5328 5328 5328 5328 5328 5328 5330 5331 5331 5333 5335 5335 5336 5337 5339 5340 5342 5344 5347 5350 5352 5356 5359 5362 5365 5370 5375 5379 5382 5387 5394 5404 5414 5422
5351 5346 5342 5339 5335 5331 5328 5326 5323 5320 5318 5316 5315 5315 5314 5313 5314 5315 5316 5317 5318 5320 5322 5323 5324 5326 5328 5329 5332 5335 5338 5341 5344 5348 5352 5355 5359 5362 5366 5370 5373 5380 5389 5400
5345 5341 5336 5332 5328 5324 5320 5318 5315 5312 5310 5308 5305 5304 5303 5301 5300 5300 5301 5302 5301 5303 5305 5307 5308 5310 5313 5315 5317 5319 5322 5325 5329 5333 5337 5341 5344 5347 5350 5353 5356 5359 5364 5374
5339 5334 5330 5325 5321 5317 5313 5310 5307 5304 5301 5299 5297 5294 5292 5290 5289 5289 5287 5287 5288 5287 5289 5290 5291 5293 5297 5299 5301 5305 5307 5310 5313 5317 5321 5325 5329 5332 5334 5337 5338 5339 5343 5349
5333 5328 5323 5318 5314 5310 5306 5302 5299 5296 5293 5289 5286 5284 5282 5280 5278 5277 5276 5274 5274 5274 5275 5275 5275 5277 5281 5283 5285 5289 5292 5296 5299 5302 5306 5310 5314 5318 5320 5322 5323 5325 5328 5333
5326 5321 5316 5311 5306 5301 5297 5293 5289 5286 5283 5279 5276 5273 5271 5269 5267 5265 5263 5262 5261 5260 5261 5261 5261 5262 5265 5267 5269 5273 5276 5281 5284 5287 5291 5295 5299 5303 5306 5309 5311 5313 5316 5321
5319 5314 5308 5303 5298 5293 5289 5285 5280 5277 5273 5270 5267 5264 5261 5259 5256 5254 5252 5250 5249 5247 5247 5247 5246 5248 5249 5251 5254 5256 5260 5264 5268 5272 5276 5280 5284 5288 5293 5296 5298 5301 5305 5310
5312 5307 5301 5295 5290 5285 5281 5277 5273 5269 5266 5263 5259 5255 5251 5248 5245 5242 5240 5237 5236 5234 5233 5233 5233 5233 5234 5236 5238 5241 5243 5248 5252 5257 5261 5266 5270 5274 5279 5284 5287 5290 5294 5299
Wind_Speed
15 25 30 26 42 61 76 75 63 59 53 54 47 61 76 71 62 61 65 65 64 65 63 61 61 62 64 67 69 71 70 70 68 65 64 62 60 59 56 54 54 53 52 50
12 17 20 29 27 29 49 67 71 72 66 55 51 56 63 63 64 62 65 64 63 63 63 64 64 65 67 66 63 63 65 67 68 68 66 63 62 60 58 57 56 55 53 52
12 11 15 21 25 30 24 41 54 50 61 65 47 48 62 64 62 59 62 61 63 62 57 55 57 59 59 59 61 64 63 62 64 65 65 64 64 63 62 61 59 58 57 54
17 15 14 17 16 19 27 26 31 44 43 57 58 58 56 49 65 66 62 58 56 56 52 52 51 52 54 57 57 58 60 65 66 65 66 66 65 65 64 64 62 61 60 59
3 18 18 13 14 14 20 25 26 27 37 42 41 47 56 58 52 66 60 55 56 55 54 53 51 52 53 55 59 61 62 60 66 69 67 66 66 66 66 65 65 64 64 62
4 3 15 21 17 15 17 21 24 26 26 34 41 42 41 54 62 57 60 60 58 60 55 55 54 53 53 55 56 60 63 65 66 66 67 67 65 65 65 65 66 66 66 66
5 5 5 16 22 22 20 22 20 24 28 31 37 40 43 43 39 64 67 66 62 61 60 56 51 48 47 49 52 56 63 66 68 68 67 68 66 66 65 65 65 67 67 64
6 2 3 6 11 19 24 27 25 26 25 27 27 29 34 37 43 42 64 69 65 63 59 58 55 48 50 49 47 50 52 53 57 61 55 62 62 59 53 61 62 63 61 63
7 6 3 2 4 7 10 22 29 31 31 29 30 31 30 29 33 39 40 46 55 62 63 58 51 49 50 46 48 51 51 52 53 54 51 45 47 45 57 49 53 57 58 53
6 5 4 2 2 4 7 8 14 23 32 38 38 36 34 35 35 34 39 41 39 39 44 50 49 51 50 50 49 55 54 53 51 54 55 51 49 52 59 60 58 56 51 57
10 11 10 9 8 6 6 5 9 13 17 25 35 41 44 45 44 42 41 40 40 40 38 40 47 51 51 53 52 55 55 52 51 48 53 56 56 54 50 49 54 57 60 57
10 11 15 16 15 12 12 12 10 9 12 17 21 28 38 44 46 48 50 49 45 44 44 42 42 43 44 48 54 56 55 53 51 51 51 48 56 54 54 51 52 54 56 57
17 15 14 14 16 19 19 18 18 16 15 14 15 20 23 26 35 46 49 51 52 54 55 54 49 48 47 46 46 51 54 53 53 55 45 47 47 55 62 54 53 54 57 54
21 20 19 17 16 17 17 19 22 22 21 20 18 18 19 23 25 26 31 40 50 52 53 56 59 57 53 54 53 53 53 52 53 50 51 53 48 50 48 61 59 54 52 54
15 16 17 18 18 18 19 20 20 21 23 25 26 24 23 23 23 24 27 31 32 34 41 50 56 57 59 62 61 57 58 61 60 58 57 55 55 53 50 57 64 62 59 54
14 15 16 17 19 20 21 21 22 23 23 23 25 27 29 30 29 28 27 27 30 33 36 34 35 38 43 53 62 64 68 69 65 61 62 61 56 56 57 55 62 58 60 57
17 15 15 17 19 21 23 24 25 25 26 26 27 28 28 30 33 34 34 33 32 32 32 32 32 33 35 39 40 45 57 63 66 70 70 69 64 61 58 61 63 69 67 60
19 17 16 16 18 21 24 25 27 28 29 29 30 31 30 31 32 33 33 36 38 38 37 37 37 36 35 34 36 40 41 43 48 54 61 65 66 64 65 62 63 62 61 64
20 20 19 19 18 20 23 26 28 29 30 31 32 33 34 34 34 34 35 35 36 38 41 43 43 42 40 39 36 36 37 38 39 39 45 49 54 60 68 69 66 66 63 63
24 22 21 21 21 20 21 23 26 28 30 31 32 33 35 37 36 36 36 37 36 37 38 38 40 43 45 44 42 41 40 37 37 37 37 41 46 47 50 65 73 74 72 68
24 24 24 23 23 23 23 23 23 25 26 27 28 30 32 35 35 36 37 39 40 39 38 39 39 38 39 41 45 46 44 43 40 38 36 37 38 41 44 48 52 74 79 77
27 26 25 25 26 26 26 25 24 24 23 24 26 26 26 29 31 33 35 35 38 40 40 41 41 41 39 39 39 40 44 47 46 44 42 39 37 37 39 46 49 48 72 84
27 26 26 26 27 26 26 26 26 25 26 27 27 28 29 29 29 29 32 32 33 36 38 40 42 44 43 42 41 40 39 41 46 48 48 45 40 38 39 43 42 48 51 68
26 27 27 27 28 27 26 26 26 26 26 28 28 29 29 30 32 32 33 34 35 35 35 37 40 43 42 44 45 44 42 40 40 43 48 49 44 39 39 42 36 39 45 47
30 30 29 29 28 28 27 27 27 27 27 28 28 28 27 27 27 29 30 31 32 34 36 37 37 39 40 43 44 45 46 44 42 41 41 46 46 42 37 40 37 37 40 45
33 32 31 29 28 27 28 28 28 26 23 23 23 24 26 27 29 29 30 31 32 32 32 34 36 37 38 40 41 44 46 46 45 43 41 41 44 43 40 36 38 39 40 44
36 32 30 31 31 28 25 22 23 24 24 25 27 29 30 31 30 30 30 30 32 33 35 36 36 36 37 38 39 41 43 45 47 46 44 42 41 42 41 37 36 36 39 44
Wind_Direction
226 223 224 210 216 220 221 223 221 225 227 229 224 224 231 231 231 232 239 240 240 240 241 240 239 240 242 243 243 243 242 243 243 245 246 246 247 247 246 246 246 245 245 249
219 223 225 230 221 222 225 221 224 223 227 230 235 239 234 230 233 235 234 237 238 238 240 243 244 245 244 243 242 242 242 242 243 243 243 244 244 245 245 245 244 245 245 246
211 203 209 224 231 228 221 225 222 228 232 225 224 225 224 227 229 226 226 231 237 237 233 234 237 240 242 243 244 243 240 240 241 241 241 240 240 242 244 244 243 243 244 245
224 221 213 212 224 229 233 230 225 229 232 236 236 236 233 226 228 230 233 229 230 227 228 229 233 234 235 236 238 240 239 238 239 239 240 240 240 240 242 242 242 243 243 244
270 227 227 215 210 199 212 225 230 226 229 226 230 235 242 241 228 227 223 228 228 226 226 229 231 235 236 236 236 236 237 237 237 238 238 240 240 239 240 241 242 242 242 243
321 242 215 223 216 203 196 201 202 215 216 220 228 227 224 225 227 230 233 230 231 226 228 231 234 235 232 231 231 234 234 235 236 237 237 237 238 238 237 239 239 240 241 242
298 282 230 215 221 222 219 215 205 200 203 211 216 225 231 234 235 232 234 236 230 232 235 232 225 226 233 237 234 232 231 234 234 235 235 237 238 240 239 239 239 240 240 241
9 359 307 237 221 224 227 224 218 216 215 213 215 218 219 222 231 236 232 227 222 230 231 224 229 231 235 237 241 236 234 232 232 234 233 235 235 237 241 239 237 237 238 238
11 18 358 317 255 241 235 228 224 221 222 226 230 230 228 223 220 225 232 229 220 227 224 226 227 230 233 239 245 244 237 233 230 228 225 228 228 219 225 226 235 232 234 229
315 326 334 325 223 234 246 244 232 227 225 226 227 231 235 238 237 231 222 220 217 220 223 227 232 236 237 243 247 240 240 237 233 229 227 223 225 224 228 230 233 229 232 232
284 289 289 291 297 292 279 250 235 232 229 229 229 229 231 237 242 246 245 242 236 236 235 229 229 234 235 235 237 237 237 236 235 234 232 230 228 228 233 232 234 231 226 230
295 280 270 267 269 267 264 270 270 255 236 231 230 229 230 229 233 240 245 246 247 247 245 244 241 237 239 236 231 231 232 235 238 238 240 234 225 227 227 230 233 236 236 235
296 294 278 267 262 257 255 255 257 260 260 250 241 230 228 229 233 232 231 235 241 245 246 248 249 245 243 240 242 243 239 239 240 237 239 239 238 235 231 230 235 235 237 235
288 284 278 270 261 257 255 251 251 252 253 254 251 246 235 232 228 228 232 236 236 235 236 241 243 241 240 241 243 242 243 242 242 243 242 243 243 239 238 235 232 236 236 236
294 280 272 266 263 258 255 253 253 253 252 251 252 251 249 247 242 236 233 232 231 234 239 239 238 239 240 240 238 239 243 245 246 246 248 246 246 246 242 239 236 236 238 234
305 290 280 271 262 259 257 256 255 254 253 253 252 251 250 248 247 247 247 244 240 236 234 233 234 238 241 242 241 240 239 240 240 242 246 244 241 238 240 239 237 231 232 236
321 311 292 276 270 265 259 257 255 255 254 254 254 253 252 252 252 249 247 246 245 244 242 242 240 238 239 237 239 244 244 241 238 240 241 243 243 240 236 232 233 235 234 234
327 320 309 297 286 277 270 262 256 254 253 252 253 252 253 253 253 254 253 250 247 247 247 248 247 247 244 240 236 235 237 239 241 241 238 235 235 236 236 235 232 232 233 234
330 324 317 309 299 290 283 279 274 269 264 259 257 257 254 251 250 251 252 251 251 250 248 247 247 248 248 248 245 240 237 238 240 243 240 240 240 237 234 232 233 232 232 230
332 326 320 313 308 301 292 286 282 279 275 271 268 266 263 261 258 255 253 252 250 250 250 249 247 248 248 248 248 248 248 244 240 241 242 241 244 245 245 239 231 230 231 229
331 326 321 316 311 306 301 296 291 288 286 282 277 273 271 269 266 263 260 259 257 254 252 252 251 249 248 248 246 246 248 249 249 247 246 247 247 245 245 245 245 233 227 226
327 325 321 317 312 309 306 301 295 291 287 286 285 283 279 275 273 271 267 265 263 260 257 255 255 254 252 251 250 249 248 247 249 250 252 252 251 249 246 245 248 245 232 223
324 323 321 316 312 310 305 301 296 293 291 289 287 285 284 281 278 275 275 269 266 264 262 259 256 254 253 253 252 250 249 249 248 247 250 252 252 252 251 246 261 245 241 231
328 325 322 317 314 312 308 305 302 298 294 292 290 287 284 282 279 276 274 274 272 269 264 261 258 256 253 252 251 251 250 249 248 246 245 248 250 249 252 244 257 250 240 228
330 328 324 319 317 313 310 309 305 302 300 297 294 292 289 286 283 281 278 274 270 268 266 263 260 258 254 251 250 249 248 247 247 247 246 244 246 245 249 243 246 243 236 230
331 329 326 322 320 316 313 311 307 307 307 304 301 298 295 292 289 286 282 279 277 274 269 265 263 259 256 253 250 248 247 246 244 244 244 244 242 242 243 247 242 237 231 228
331 331 328 324 322 321 320 317 313 311 308 305 302 300 298 294 292 289 286 282 278 273 269 266 263 261 258 256 251 249 246 243 243 241 240 241 240 238 238 244 237 235 231 227